Tracking 28052 objects as of 23-Sep-2023
HD Live streaming from Space Station
objects crossing your sky now

GALAXY 10R

Track GALAXY 10R now!
GALAXY 10R is classified as:


NORAD ID: 26056
Int'l Code: 2000-002A
Perigee: 35,935.5 km
Apogee: 36,003.8 km
Inclination: 10.6 °
Period: 1,445.1 minutes
Semi major axis: 42340 km
RCS: 16.229 m2 (large)
Launch date: January 25, 2000
Source: United States (US)
Launch site: FRENCH GUIANA (FRGUI)

Digital and voice communications; 24 C-band< 24 Ku-band; North America.
Your satellite tracking list
Your tracking list is empty




NASA's NSSDC Master Catalog

Two Line Element Set (TLE):
1 26056U 00002A   23266.14930931 -.00000193  00000-0  00000+0 0  9993
2 26056  10.5837  38.2587 0008064 127.2828  55.6677  0.99647475 86377
Source of the keplerian elements: AFSPC